| time (UTC) | temp C | wind direction | speed KPH | gust KPH | rain 1hr cm | rain 24hr cm | rain mn cm | humidity % | barometer mb |
| 20260504081916 | 21 | 63 | 3.2 | 12.9 | 0.00 | 0.00 | 0.00 | 46 | 1015.9 |
| 20260504080416 | 21 | 32 | 3.2 | 8.0 | 0.00 | 0.00 | 0.00 | 47 | 1016.1 |
| 20260504050412 | 12 | 211 | 0.0 | 3.2 | 0.00 | 0.00 | 0.00 | 74 | 1016.3 |
| 20260504044913 | 12 | 211 | 0.0 | 3.2 | 0.00 | 0.00 | 0.00 | 72 | 1016.3 |
| 20260504043416 | 12 | 211 | 0.0 | 1.6 | 0.00 | 0.00 | 0.00 | 70 | 1016.5 |
| 20260504041912 | 12 | 211 | 0.0 | 0.0 | 0.00 | 0.00 | 0.00 | 69 | 1016.4 |
| 20260504040411 | 12 | 211 | 0.0 | 1.6 | 0.00 | 0.00 | 0.00 | 68 | 1016.4 |
| 20260504034907 | 13 | 211 | 0.0 | 0.0 | 0.00 | 0.00 | 0.00 | 67 | 1016.5 |
| 20260504033411 | 13 | 211 | 0.0 | 1.6 | 0.00 | 0.00 | 0.00 | 66 | 1016.6 |
| 20260504030403 | 13 | 211 | 0.0 | 1.6 | 0.00 | 0.00 | 0.00 | 66 | 1016.7 |
| 20260504024905 | 13 | 211 | 0.0 | 0.0 | 0.00 | 0.00 | 0.00 | 65 | 1016.6 |
| 20260504023401 | 14 | 211 | 0.0 | 1.6 | 0.00 | 0.00 | 0.00 | 64 | 1016.6 |
| 20260504021901 | 14 | 211 | 1.6 | 4.8 | 0.00 | 0.00 | 0.00 | 64 | 1016.9 |
| 20260504020358 | 14 | 240 | 0.0 | 3.2 | 0.00 | 0.00 | 0.00 | 64 | 1016.8 |
| 20260504014901 | 15 | 224 | 0.0 | 4.8 | 0.00 | 0.00 | 0.00 | 63 | 1016.9 |
| 20260504013402 | 15 | 209 | 1.6 | 6.4 | 0.00 | 0.00 | 0.00 | 61 | 1016.9 |
| 20260504004859 | 15 | 261 | 1.6 | 6.4 | 0.00 | 0.00 | 0.00 | 58 | 1016.6 |
| 20260504003357 | 15 | 271 | 3.2 | 16.1 | 0.00 | 0.00 | 0.00 | 54 | 1016.6 |
| 20260504001858 | 16 | 286 | 4.8 | 16.1 | 0.00 | 0.00 | 0.00 | 54 | 1016.6 |
| 20260504000357 | 16 | 251 | 4.8 | 16.1 | 0.00 | 0.00 | 0.00 | 56 | 1016.4 |
| 20260503234858 | 15 | 313 | 6.4 | 16.1 | 0.00 | 0.00 | 0.00 | 58 | 1015.9 |
| 20260503233402 | 16 | 222 | 3.2 | 9.7 | 0.00 | 0.00 | 0.00 | 63 | 1015.8 |
| 20260503231854 | 15 | 285 | 1.6 | 6.4 | 0.00 | 0.00 | 0.00 | 62 | 1015.7 |
| 20260503230358 | 15 | 236 | 1.6 | 8.0 | 0.00 | 0.00 | 0.00 | 63 | 1015.4 |
| 20260503224855 | 15 | 258 | 1.6 | 14.5 | 0.00 | 0.00 | 0.00 | 63 | 1015.3 |
| 20260503223351 | 15 | 283 | 0.0 | 0.0 | 0.00 | 0.00 | 0.00 | 61 | 1015.2 |
| 20260503221851 | 15 | 283 | 0.0 | 0.0 | 0.00 | 0.00 | 0.00 | 60 | 1014.8 |
| 20260503214853 | 16 | 283 | 0.0 | 0.0 | 0.00 | 0.00 | 0.00 | 58 | 1014.9 |
| 20260503213349 | 16 | 283 | 0.0 | 0.0 | 0.00 | 0.00 | 0.00 | 57 | 1014.8 |
| 20260503211851 | 16 | 283 | 0.0 | 4.8 | 0.00 | 0.00 | 0.00 | 57 | 1014.6 |
| 20260503210350 | 16 | 269 | 0.0 | 3.2 | 0.00 | 0.00 | 0.00 | 57 | 1014.5 |
| 20260503204853 | 16 | 269 | 0.0 | 0.0 | 0.00 | 0.00 | 0.00 | 56 | 1014.3 |
| 20260503203350 | 16 | 269 | 0.0 | 1.6 | 0.00 | 0.00 | 0.00 | 56 | 1014.0 |
| 20260503201851 | 17 | 269 | 0.0 | 1.6 | 0.00 | 0.00 | 0.00 | 57 | 1014.0 |
| 20260503200349 | 17 | 269 | 0.0 | 0.0 | 0.00 | 0.00 | 0.00 | 54 | 1013.9 |
| 20260503194850 | 18 | 269 | 0.0 | 0.0 | 0.00 | 0.00 | 0.00 | 51 | 1013.9 |
| 20260503193351 | 19 | 269 | 0.0 | 0.0 | 0.00 | 0.00 | 0.00 | 48 | 1013.8 |
| 20260503190345 | 20 | 269 | 0.0 | 1.6 | 0.00 | 0.00 | 0.00 | 43 | 1013.5 |
| 20260503184850 | 21 | 269 | 0.0 | 4.8 | 0.00 | 0.00 | 0.00 | 41 | 1013.5 |
| 20260503183347 | 21 | 269 | 1.6 | 12.9 | 0.00 | 0.00 | 0.00 | 40 | 1013.5 |
| 20260503181846 | 22 | 229 | 1.6 | 11.3 | 0.00 | 0.00 | 0.00 | 39 | 1013.4 |
| 20260503180347 | 22 | 242 | 1.6 | 4.8 | 0.00 | 0.00 | 0.00 | 39 | 1013.1 |
| 20260503174847 | 23 | 233 | 3.2 | 9.7 | 0.00 | 0.00 | 0.00 | 37 | 1013.1 |
| 20260503173352 | 23 | 268 | 1.6 | 6.4 | 0.00 | 0.00 | 0.00 | 33 | 1013.0 |
| 20260503170347 | 24 | 260 | 3.2 | 8.0 | 0.00 | 0.00 | 0.00 | 34 | 1012.7 |
| 20260503150341 | 26 | 78 | 0.0 | 4.8 | 0.00 | 0.00 | 0.00 | 33 | 1012.8 |
| 20260503130343 | 28 | 291 | 3.2 | 8.0 | 0.00 | 0.00 | 0.00 | 31 | 1013.8 |